Date String (YYYY-MM-DD hh:mm:ss) UTC,Instrument flags,absolute air pressure of the measurement (hPa),sample flow rate (lpm),inlet stack bypass flow (lpm),air temperature of the measurement (°C),ambient temperature measured by the external sensor (°C),aerosol sample conditioner tube jacket temperature (°C),OPC LED temperature (°C),internal box temperature (°C),relative humidity of the measurement (%),span deviation,mass concentration of particles derived from Lorenz-Mie calculation of OPC scattering (μg/m³),mass concentration of particles derived from Lorenz-Mie calculation of OPC scattering (μg/m³),mass concentration of particles derived from Lorenz-Mie calculation of OPC scattering (μg/m³)
DateTimeUTC,F1_M11,P_M11,Q1_M11,Q2_M11,T1_M11,T2_M11,T3_M11,T4_M11,T5_M11,U1_M11,ZSPAN_M11,X0_M11,X2_M11,X1_M11
2024-05-23 05:00:00,SystemResetWarning,0823.3,5.00,000.00,030.3,029.5,000.0,038.7,032.0,009.1,0000.0,0010.56,0003.22,0002.19
2024-05-23 05:01:00,SystemResetWarning,0823.3,4.99,000.00,030.3,029.5,000.0,038.6,032.0,009.2,0000.0,0010.45,0003.20,0002.19
2024-05-23 05:02:00,SystemResetWarning,0823.3,5.01,000.00,030.3,029.5,000.0,038.6,032.0,009.3,0000.0,0011.36,0003.17,0002.19
2024-05-23 05:03:00,SystemResetWarning,0823.3,5.00,000.00,030.3,029.5,000.0,038.6,032.0,009.2,0000.0,0012.03,0003.16,0002.19
2024-05-23 05:04:00,SystemResetWarning,0823.3,5.00,000.00,030.3,029.5,000.0,038.6,032.0,009.1,0000.0,0012.30,0003.16,0002.20
2024-05-23 05:05:00,SystemResetWarning,0823.2,5.00,000.00,030.3,029.5,000.0,038.6,032.0,009.1,0000.0,0012.49,0003.20,0002.20
2024-05-23 05:06:00,SystemResetWarning,0823.1,5.00,000.00,030.3,029.5,000.0,038.7,032.0,009.1,0000.0,0012.20,0003.21,0002.20
2024-05-23 05:07:00,SystemResetWarning,0823.1,5.00,000.00,030.3,029.5,000.0,038.7,032.0,009.0,0000.0,0012.12,0003.18,0002.20
2024-05-23 05:08:00,SystemResetWarning,0823.1,5.00,000.00,030.3,029.5,000.0,038.6,032.0,009.0,0000.0,0011.78,0003.18,0002.21
2024-05-23 05:09:00,SystemResetWarning,0823.1,5.01,000.00,030.3,029.5,000.0,038.6,032.0,009.0,0000.0,0011.35,0003.21,0002.21
2024-05-23 05:10:00,SystemResetWarning,0823.1,5.01,000.00,030.3,029.5,000.0,038.6,032.0,009.0,0000.0,0011.72,0003.21,0002.21
2024-05-23 05:11:00,SystemResetWarning,0823.1,5.00,000.00,030.3,029.5,000.0,038.7,032.0,009.0,0000.0,0010.89,0003.20,0002.22
2024-05-23 05:12:00,SystemResetWarning,0823.0,4.99,000.00,030.3,029.5,000.0,038.7,032.0,009.0,0000.0,0010.94,0003.20,0002.21
2024-05-23 05:13:00,SystemResetWarning,0823.0,4.99,000.00,030.3,029.5,000.0,038.7,032.0,009.3,0000.0,0009.89,0003.21,0002.20
2024-05-23 05:14:00,SystemResetWarning,0823.1,5.01,000.00,030.3,029.5,000.0,038.7,032.0,009.4,0000.0,0009.37,0003.26,0002.21
2024-05-23 05:15:00,SystemResetWarning,0823.1,5.01,000.00,030.3,029.5,000.0,038.7,032.0,009.3,0000.0,0009.49,0003.27,0002.21
2024-05-23 05:16:00,SystemResetWarning,0823.1,5.00,000.00,030.3,029.5,000.0,038.7,032.0,009.3,0000.0,0010.00,0003.25,0002.21
2024-05-23 05:17:00,SystemResetWarning,0823.1,5.01,000.00,030.3,029.5,000.0,038.7,032.0,009.1,0000.0,0010.19,0003.24,0002.21
2024-05-23 05:18:00,SystemResetWarning,0823.1,5.00,000.00,030.3,029.5,000.0,038.7,032.0,009.2,0000.0,0010.02,0003.27,0002.21
2024-05-23 05:19:00,SystemResetWarning,0823.1,5.00,000.00,030.3,029.5,000.0,038.7,032.0,009.2,0000.0,0009.82,0003.28,0002.20
2024-05-23 05:20:00,SystemResetWarning,0823.0,4.99,000.00,030.3,029.5,000.0,038.7,032.0,009.4,0000.0,0009.17,0003.26,0002.19
2024-05-23 05:21:00,SystemResetWarning,0823.0,4.99,000.00,030.3,029.5,000.0,038.7,032.0,009.7,0000.0,0008.92,0003.28,0002.20
2024-05-23 05:22:00,SystemResetWarning,0823.0,5.01,000.00,030.3,029.5,000.0,038.7,032.0,009.6,0000.0,0009.03,0003.31,0002.20
2024-05-23 05:23:00,SystemResetWarning,0823.0,5.01,000.00,030.3,029.5,000.0,038.7,032.0,009.6,0000.0,0009.01,0003.29,0002.22
2024-05-23 05:24:00,SystemResetWarning,0823.0,5.00,000.00,030.3,029.5,000.0,038.7,032.0,009.6,0000.0,0008.88,0003.26,0002.24
2024-05-23 05:25:00,SystemResetWarning,0823.0,4.99,000.00,030.3,029.5,000.0,038.7,032.0,009.7,0000.0,0008.74,0003.24,0002.24
2024-05-23 05:26:00,SystemResetWarning,0822.9,4.99,000.00,030.3,029.5,000.0,038.7,032.0,009.7,0000.0,0008.54,0003.26,0002.24
2024-05-23 05:27:00,SystemResetWarning,0822.9,5.01,000.00,030.3,029.5,000.0,038.7,032.0,009.9,0000.0,0007.93,0003.27,0002.25
2024-05-23 05:28:00,SystemResetWarning,0823.0,5.01,000.00,030.3,029.5,000.0,038.6,031.9,010.1,0000.0,0007.60,0003.30,0002.27
2024-05-23 05:29:00,SystemResetWarning,0823.0,5.01,000.00,030.3,029.5,000.0,038.6,031.9,010.0,0000.0,0007.81,0003.30,0002.28
2024-05-23 05:30:00,SystemResetWarning,0823.2,5.00,000.00,030.3,029.4,000.0,038.6,031.9,010.1,0000.0,0007.82,0003.28,0002.29
2024-05-23 05:31:00,SystemResetWarning,0822.9,5.00,000.00,030.3,029.4,000.0,038.6,031.9,010.1,0000.0,0008.02,0003.28,0002.31
2024-05-23 05:32:00,SystemResetWarning,0822.9,5.00,000.00,030.3,029.4,000.0,038.6,031.9,010.1,0000.0,0007.95,0003.33,0002.32
2024-05-23 05:33:00,SystemResetWarning,0822.9,4.99,000.00,030.3,029.4,000.0,038.6,031.9,010.1,0000.0,0008.15,0003.37,0002.32
2024-05-23 05:34:00,SystemResetWarning,0822.8,4.99,000.00,030.2,029.4,000.0,038.6,031.9,010.1,0000.0,0008.37,0003.40,0002.34
2024-05-23 05:35:00,SystemResetWarning,0823.1,5.00,000.00,030.2,029.4,000.0,038.6,031.9,010.2,0000.0,0008.34,0003.42,0002.35
2024-05-23 05:36:00,SystemResetWarning,0823.1,5.01,000.00,030.2,029.4,000.0,038.6,031.9,010.2,0000.0,0008.50,0003.41,0002.35
2024-05-23 05:37:00,SystemResetWarning,0822.8,5.01,000.00,030.2,029.4,000.0,038.6,031.9,010.2,0000.0,0008.46,0003.39,0002.36
2024-05-23 05:38:00,SystemResetWarning,0823.0,5.01,000.00,030.2,029.4,000.0,038.6,031.9,010.3,0000.0,0008.36,0003.38,0002.38
2024-05-23 05:39:00,SystemResetWarning,0822.8,4.99,000.00,030.2,029.4,000.0,038.6,031.9,010.4,0000.0,0008.49,0003.44,0002.39
2024-05-23 05:40:00,SystemResetWarning,0823.0,4.99,000.00,030.2,029.4,000.0,038.6,031.9,010.4,0000.0,0008.39,0003.48,0002.40
2024-05-23 05:41:00,SystemResetWarning,0822.9,4.99,000.00,030.2,029.4,000.0,038.6,031.9,010.4,0000.0,0008.38,0003.50,0002.42
2024-05-23 05:42:00,SystemResetWarning,0823.3,5.00,000.00,030.2,029.4,000.0,038.6,031.9,010.4,0000.0,0008.99,0003.51,0002.44
2024-05-23 05:43:00,SystemResetWarning,0823.2,5.01,000.00,030.2,029.3,000.0,038.6,031.8,010.4,0000.0,0009.32,0003.45,0002.44
2024-05-23 05:44:00,SystemResetWarning,0823.0,5.00,000.00,030.2,029.3,000.0,038.6,031.8,010.4,0000.0,0009.14,0003.42,0002.45
2024-05-23 05:45:00,SystemResetWarning,0822.7,5.01,000.00,030.2,029.3,000.0,038.6,031.8,010.3,0000.0,0009.05,0003.42,0002.46
2024-05-23 05:46:00,SystemResetWarning,0822.8,5.00,000.00,030.2,029.3,000.0,038.6,031.8,010.4,0000.0,0009.25,0003.43,0002.48
2024-05-23 05:47:00,SystemResetWarning,0822.7,4.98,000.00,030.2,029.3,000.0,038.6,031.8,010.4,0000.0,0009.18,0003.41,0002.49
2024-05-23 05:48:00,SystemResetWarning,0822.8,5.00,000.00,030.1,029.3,000.0,038.6,031.8,010.4,0000.0,0009.08,0003.41,0002.50
2024-05-23 05:49:00,SystemResetWarning,0822.7,5.02,000.00,030.1,029.3,000.0,038.6,031.8,010.4,0000.0,0009.14,0003.44,0002.53
2024-05-23 05:50:00,SystemResetWarning,0822.8,5.00,000.00,030.1,029.3,000.0,038.5,031.8,010.3,0000.0,0009.01,0003.37,0002.52
2024-05-23 05:51:00,SystemResetWarning,0822.7,5.00,000.00,030.1,029.3,000.0,038.5,031.8,010.3,0000.0,0008.78,0003.30,0002.51
2024-05-23 05:52:00,SystemResetWarning,0822.8,5.01,000.00,030.1,029.3,000.0,038.5,031.8,010.2,0000.0,0009.14,0003.29,0002.50
2024-05-23 05:53:00,SystemResetWarning,0822.8,5.00,000.00,030.1,029.3,000.0,038.5,031.7,010.2,0000.0,0008.65,0003.28,0002.48
2024-05-23 05:54:00,SystemResetWarning,0822.6,4.99,000.00,030.1,029.3,000.0,038.5,031.7,010.2,0000.0,0008.15,0003.31,0002.47
2024-05-23 05:55:00,SystemResetWarning,0822.7,5.00,000.00,030.1,029.3,000.0,038.5,031.7,010.2,0000.0,0007.83,0003.30,0002.47
2024-05-23 05:56:00,SystemResetWarning,0822.8,5.01,000.00,030.1,029.3,000.0,038.5,031.8,010.1,0000.0,0008.26,0003.29,0002.45
2024-05-23 05:57:00,SystemResetWarning,0822.6,5.00,000.00,030.1,029.3,000.0,038.5,031.7,010.1,0000.0,0008.36,0003.26,0002.43
2024-05-23 05:58:00,SystemResetWarning,0822.6,5.01,000.00,030.1,029.3,000.0,038.5,031.7,010.2,0000.0,0008.91,0003.29,0002.42
2024-05-23 05:59:00,SystemResetWarning,0822.6,4.99,000.00,030.1,029.3,000.0,038.5,031.8,010.1,0000.0,0009.79,0003.31,0002.40
